Location: Asheville, NC
(35.6000°N, 82.5500°W)
Time: 04:56:55
(UTC-04:00)

Vanguard 2 - Visible Passes

Search period start: 20 October 2017 00:00
Search period end: 30 October 2017 00:00
Orbit: 554 x 2939 km, 32.9° (Epoch: 19 October)

Date Brightness Start Highest point End Pass type
(mag) Time Alt. Az. Time Alt. Az. Time Alt. Az.
20 Oct 11.7 06:40:12 10° SSW 06:53:02 26° SE 07:03:27 10° E visible
21 Oct 12.1 04:56:58 10° SSE 05:00:04 11° SE 05:03:06 10° SE visible
21 Oct 11.5 06:56:39 10° SSW 07:11:12 34° SSE 07:22:35 10° E visible
22 Oct 11.9 05:08:39 10° S 05:18:10 17° SE 05:26:59 10° ESE visible
22 Oct 11.2 07:13:39 10° SW 07:29:23 42° SSE 07:41:19 10° E visible
23 Oct 11.7 05:23:46 10° S 05:36:13 24° SE 05:47:27 10° E visible
24 Oct 11.5 05:39:55 10° SSW 05:54:15 31° SE 06:06:56 10° E visible
25 Oct 11.9 03:54:19 10° SSE 04:01:26 14° SE 04:08:30 10° ESE visible
25 Oct 11.2 05:56:40 10° SSW 06:12:19 39° SSE 06:25:52 10° E visible
26 Oct 11.7 04:08:24 10° S 04:19:18 20° SE 04:30:10 10° E visible
26 Oct 11.0 06:13:52 10° SW 06:30:25 47° SSE 06:44:31 10° E visible
27 Oct 11.5 04:24:37 11° S 04:37:09 27° SE 04:50:10 10° E visible
27 Oct 10.8 06:31:24 10° SW 06:48:35 56° SSE 07:03:00 10° E visible
28 Oct 11.2 04:42:44 15° SSW 04:55:02 35° SE 05:09:27 10° E visible
28 Oct 10.7 06:49:12 10° SW 07:06:49 64° SSE 07:21:21 10° E visible
29 Oct 11.6 02:59:12 15° SE 03:02:34 16° SE 03:11:08 10° ESE visible
29 Oct 11.0 05:00:42 18° SSW 05:12:58 43° SSE 05:28:18 10° E visible
29 Oct 10.6 07:07:14 10° WSW 07:25:08 71° SSE 07:39:39 10° E visible
